Regional Weather Roundup
Issued by NWS

Home | Current Version | Previous Version | Text Only | Print | Product List | Glossary Off
Versions: 1 2 3 4 5 6 7 8 9 10 11 12 13 14 15 16 17 18 19 20 21 22 23 24 25 26 27 28 29 30 31 32 33 34 35 36 37 38 39 40 41 42 43 44 45 46 47 48 49 50

000
ASUS43 KIND 271909
RWRIN

WEATHER ROUNDUP FOR INDIANA
NATIONAL WEATHER SERVICE INDIANAPOLIS IN
300 PM EDT FRI MAY 27 2016

NOTE: "FAIR" INDICATES FEW OR NO CLOUDS BELOW 12,000 FEET WITH NO
SIGNIFICANT WEATHER AND/OR OBSTRUCTIONS TO VISIBILITY.

* - STATION DOES NOT REPORT WEATHER SUCH AS PRECIPITATION OR FOG.

+ - STATION NOT QUALITY CONTROLLED BY THE NATIONAL WEATHER SERVICE.
    USE DATA WITH CAUTION...ESPECIALLY DEWPOINT AND RELATIVE
    HUMIDITY OBSERVATIONS.

INZ001>003-010>013-019-020-272000-
NORTHWEST INDIANA

CITY           SKY/WX    TMP DP  RH WIND       PRES   REMARKS
GARY /AIRPORT/ PTSUNNY   82  70  65 S6        29.89F
KNOX *+          N/A     82  48  30 SW9G21    29.92
LA PORTE +     CLOUDY    83  64  51 S9        29.93F
MICHIGAN CITY+ PTSUNNY   81  64  57 S7        29.91F
MONTICELLO +   MOSUNNY   84  57  39 S13G21    29.92F
RENSSELAER +   MOSUNNY   82  63  51 S14       29.89F
VALPARAISO     PTSUNNY   84  62  47 S16G28    29.90F

$$

LMZ046-743>745-272000-
SOUTHERN LAKE MICHIGAN

STATION/POSITION TIME  TEMP    WIND        PRES    WAVE
                       AIR SEA DIR/SP/G            HT
                 (UTC) (F)     (DEG/KT/KT) (MB)    (FT)
BURNS HARBOR     1800   80     190/ 11/ 19 1013.2F
MICHIGAN CITY    1800   78     180/ 13/ 16   N/A
5NW MICH CITY    1900   72 60  180/  6/ 10   N/A     1

$$

INZ004-005-014>016-021>024-272000-
NORTH CENTRAL INDIANA

CITY           SKY/WX    TMP DP  RH WIND       PRES   REMARKS
ELKHART        CLOUDY    81  68  65 SW8       29.96F
GOSHEN         CLOUDY    83  62  49 S13       29.95F
LOGANSPORT +   PTSUNNY   86  61  42 SW21G28   29.94F
PERU/GRISSOM   MOSUNNY   84  64  50 S17G23    29.94S
ROCHESTER +    MOSUNNY   86  63  45 S12G17    29.95F
SOUTH BEND     CLOUDY    79  64  60 S9        29.94F
WARSAW +       PTSUNNY   82  61  47 SW6       29.96F

$$

INZ006>009-017-018-025>027-272000-
NORTHEAST INDIANA

CITY           SKY/WX    TMP DP  RH WIND       PRES   REMARKS
ANGOLA *+        N/A     81  75  83 SW9       29.98F
AUBURN +       MOSUNNY   82  61  47 SW7       29.99F
FORT WAYNE     PTSUNNY   85  60  42 SW10G18   29.97F
HUNTINGTON +   PTSUNNY  N/A N/A N/A S9        29.95F

$$

INZ028-029-035-036-043>045-051>053-272000-
WEST CENTRAL INDIANA

CITY           SKY/WX    TMP DP  RH WIND       PRES   REMARKS
CRAWFORDSVL +  CLOUDY    80  65  59 S17G25    29.93F
GREENCASTLE +  PTSUNNY   79  70  73 S9G16     29.95F
LAFAYETTE      CLOUDY    81  63  54 S12G18    29.91F
TERRE HAUTE    MOSUNNY   82  66  58 S15       29.92F

$$

INZ030>032-037>040-046>048-054>057-064-065-272000-
CENTRAL INDIANA

CITY           SKY/WX    TMP DP  RH WIND       PRES   REMARKS
CP ATTERBURY + MOSUNNY   84  63  48 S12G21    29.97F
COLUMBUS       MOSUNNY   84  63  48 S16G25    29.97F
FRANKFORT +      N/A     84  47  27 S10G23    29.96F
GREENWOOD *+   MOSUNNY   84  63  48 SW10G17   29.97
INDIANAPOLIS   CLOUDY    82  65  56 SE13      29.94F
-EAGLE CREEK   CLOUDY    82  64  54 SW12G22   29.95F
KOKOMO *+      MOSUNNY   82  64  54 SW18G25   29.95F
MARION +       MOSUNNY   86  60  41 S16G25    29.97F
SHELBYVILLE    MOSUNNY   87  61  41 S18       29.96F
ZIONSVILLE +   CLOUDY    82  64  55 SW17G25   29.97F

$$

INZ033-034-041-042-049-050-058-059-272000-
EAST CENTRAL INDIANA

CITY           SKY/WX    TMP DP  RH WIND       PRES   REMARKS
MUNCIE         MOSUNNY   87  60  40 SW7G16    29.97F

$$

INZ060-061-067>069-081>083-085>088-272000-
SOUTHWEST INDIANA

CITY           SKY/WX    TMP DP  RH WIND       PRES   REMARKS
EVANSVILLE     PTSUNNY   82  65  56 S13       29.94F
HUNTINGBURG *+ PTSUNNY   82  64  54 S15G22    29.96F
WASHINGTON +   MOSUNNY   83  65  52 SW12G21   29.93F

$$

INZ062-063-066-070>080-084-089>092-272000-
SOUTH CENTRAL AND SOUTHEAST INDIANA

CITY           SKY/WX    TMP DP  RH WIND       PRES   REMARKS
BEDFORD +      MOSUNNY   82  72  69 S16       29.96F
BLOOMINGTON    MOSUNNY   83  65  54 S13       29.95F
MADISON *+     MOSUNNY   84  61  45 S12       30.02F
NORTH VERNON + MOSUNNY   86  70  58 S12       29.99F
SEYMOUR +      MOSUNNY   86  64  48 S14       29.97F

$$





USA.gov is the U.S. government's official web portal to all federal, state and local government web resources and services.